DW6848 Weather Reports


time (UTC)temp
C
wind
direction
speed
KPH
gust
KPH
rain 1hr
cm
rain 24hr
cm
rain mn
cm
humidity
%
barometer
mb
20260505070013 16 141 0.0 1.6 0.00 0.00 0.00 73 1010.4
20260505064510 16 150 0.0 3.2 0.00 0.00 0.00 72 1010.7
20260505063008 16 134 0.0 3.2 0.00 0.00 0.00 72 1010.9
20260505061524 16 158 0.0 3.2 0.00 0.00 0.00 73 1011.0
20260505060015 17 160 0.0 0.0 0.00 0.00 0.00 72 1011.1
20260505054518 17 160 0.0 0.0 0.00 0.00 0.00 71 1011.1
20260505053014 17 162 0.0 1.6 0.00 0.00 0.00 69 1011.0
20260505051514 18 176 0.0 4.8 0.00 0.00 0.00 68 1011.0
20260505041515 19 165 1.6 8.0 0.00 0.00 0.00 64 1011.1
20260505040021 19 158 0.0 6.4 0.00 0.00 0.00 63 1011.1
20260505034517 19 141 1.6 6.4 0.00 0.00 0.00 62 1011.0
20260505033015 20 161 3.2 11.3 0.00 0.00 0.00 62 1011.2
20260505031513 20 164 1.6 8.0 0.00 0.00 0.00 62 1011.1
20260505030018 20 164 0.0 4.8 0.00 0.00 0.00 61 1011.0
20260505024514 20 148 1.6 9.7 0.00 0.00 0.00 60 1010.9
20260505023021 20 170 0.0 4.8 0.00 0.00 0.00 60 1010.8
20260505021519 20 169 1.6 4.8 0.00 0.00 0.00 58 1010.5
20260505020025 21 158 1.6 6.4 0.00 0.00 0.00 57 1010.5
20260505014532 21 148 0.0 4.8 0.00 0.00 0.00 57 1010.2
20260505013027 21 110 0.0 1.6 0.00 0.00 0.00 56 1010.4
20260505011526 22 172 0.0 4.8 0.00 0.00 0.00 54 1010.3
20260505010020 22 160 1.6 8.0 0.00 0.00 0.00 52 1010.3
20260505004520 22 157 1.6 9.7 0.00 0.00 0.00 50 1010.2
20260505003041 23 159 3.2 8.0 0.00 0.00 0.00 50 1010.1
20260505001521 23 169 1.6 8.0 0.00 0.00 0.00 49 1010.1
20260505000018 23 165 1.6 9.7 0.00 0.00 0.00 48 1010.1
20260504234523 24 220 4.8 22.5 0.00 0.00 0.00 47 1010.2
20260504233022 25 186 3.2 14.5 0.00 0.00 0.00 46 1010.3
20260504231525 25 236 6.4 19.3 0.00 0.00 0.00 46 1010.3
20260504230023 25 188 4.8 16.1 0.00 0.00 0.00 44 1010.4
20260504224522 25 167 4.8 24.1 0.00 0.00 0.00 44 1010.3
20260504223024 26 158 4.8 17.7 0.00 0.00 0.00 43 1010.4
20260504221522 26 171 9.7 20.9 0.00 0.00 0.00 42 1010.5
20260504220021 26 158 6.4 17.7 0.00 0.00 0.00 42 1010.4
20260504214523 26 207 6.4 22.5 0.00 0.00 0.00 42 1010.6
20260504213027 26 150 9.7 22.5 0.00 0.00 0.00 42 1010.5
20260504211534 26 188 8.0 19.3 0.00 0.00 0.00 42 1010.7
20260504210022 26 252 8.0 16.1 0.00 0.00 0.00 42 1011.0
20260504204521 26 212 9.7 17.7 0.00 0.00 0.00 41 1011.1
20260504203021 26 158 4.8 19.3 0.00 0.00 0.00 43 1011.2
20260504201519 26 223 6.4 17.7 0.00 0.00 0.00 43 1011.5
20260504200024 26 198 8.0 24.1 0.00 0.00 0.00 43 1011.8
20260504194525 26 174 8.0 17.7 0.00 0.00 0.00 41 1011.9
20260504193024 26 282 4.8 22.5 0.00 0.00 0.00 44 1012.4
20260504191509 26 276 6.4 24.1 0.00 0.00 0.00 44 1012.4
20260504190016 26 247 3.2 30.6 0.00 0.00 0.00 45 1012.5
20260504184536 26 162 4.8 22.5 0.00 0.00 0.00 45 1012.7
20260504183021 26 238 9.7 24.1 0.00 0.00 0.00 44 1013.1
20260504181523 26 179 6.4 17.7 0.00 0.00 0.00 44 1013.1
20260504180024 26 210 6.4 14.5 0.00 0.00 0.00 48 1013.3
20260504174523 25 207 4.8 22.5 0.00 0.00 0.00 46 1013.4
20260504173025 25 179 8.0 16.1 0.00 0.00 0.00 50 1013.6
20260504171525 25 206 6.4 20.9 0.00 0.00 0.00 48 1013.8
20260504081507 15 154 1.6 6.4 0.00 0.00 0.00 71 1014.6